Location: Poughquag
(41.6090°N, 73.6820°W)
Time: 12:44:14
(UTC-04:00)

Tiros 1 - Pass Details

Date: 04 June 2020
Orbit: 630 x 664 km, 48.4° (Epoch: 06 July)

Event Time Altitude Azimuth Distance (km) Brightness Sun altitude
Rises 10:15:36 0° 199° (SSW) 2,976 10.6 52.0°
Reaches altitude 10° 10:18:25 10° 183° (S) 2,064 10.0 52.5°
Maximum altitude 10:21:58 21° 135° (SE) 1,466 10.0 53.1°
Drops below altitude 10° 10:25:30 10° 86° (E) 2,060 10.5 53.8°
Sets 10:28:18 0° 71° (ENE) 2,968 10.9 54.3°
